15-10-2022, 00:00:00,    150,    0.0,    7.1,   0.00,   0.00, 1003.2,    0.0, -999.0
15-10-2022, 00:00:10,    150,    0.0,    7.1,   0.00,   0.00, 1003.3,    0.0, -999.0
15-10-2022, 00:00:19,    150,    0.0,    6.9,   0.00,   0.00, 1003.2,    0.0, -999.0
15-10-2022, 00:00:29,    150,    0.0,    7.0,   0.00,   0.00, 1003.2,    0.0, -999.0
15-10-2022, 00:00:39,    150,    0.0,    7.0,   0.00,   0.00, 1003.2,    0.0, -999.0
15-10-2022, 00:00:49,    151,    0.0,    7.0,   0.00,   0.00, 1003.2,    0.1, -999.0
15-10-2022, 00:00:59,    150,    0.1,    7.1,   0.00,   0.00, 1003.3,    0.0, -999.0
15-10-2022, 00:01:09,    150,    0.4,    7.1,   0.00,   0.00, 1003.3,    0.0, -999.0
15-10-2022, 00:01:19,    151,    0.1,    7.0,   0.00,   0.00, 1003.2,    0.0, -999.0
15-10-2022, 00:01:29,    150,    0.1,    7.0,   0.00,   0.00, 1003.2,    0.0, -999.0
15-10-2022, 00:01:39,    151,    0.0,    7.0,   0.00,   0.00, 1003.2,    0.0, -999.0
15-10-2022, 00:01:49,    151,    0.5,    7.1,   0.00,   0.00, 1003.3,    0.0, -999.0
15-10-2022, 00:01:59,    151,    0.6,    7.1,   0.00,   0.00, 1003.3,    0.1, -999.0
15-10-2022, 00:02:09,    151,    0.6,    7.2,   0.00,   0.00, 1003.3,    0.1, -999.0
15-10-2022, 00:02:19,    151,    0.5,    7.1,   0.00,   0.00, 1003.3,    0.0, -999.0
15-10-2022, 00:02:28,    151,    0.3,    7.0,   0.00,   0.00, 1003.3,    0.0, -999.0
15-10-2022, 00:02:39,    150,    0.0,    6.9,   0.00,   0.00, 1003.2,    0.0, -999.0
15-10-2022, 00:02:49,    151,    0.1,    6.9,   0.00,   0.00, 1003.2,    0.0, -999.0
15-10-2022, 00:02:58,    151,    0.2,    7.0,   0.00,   0.00, 1003.3,    0.0, -999.0
15-10-2022, 00:03:09,    198,    0.2,    7.0,   0.00,   0.00, 1003.3,    0.0, -999.0
15-10-2022, 00:03:19,    181,    0.5,    7.1,   0.00,   0.00, 1003.3,    0.0, -999.0
15-10-2022, 00:03:28,    181,    0.2,    7.0,   0.00,   0.00, 1003.3,    0.0, -999.0
15-10-2022, 00:03:38,    181,    0.2,    7.0,   0.00,   0.00, 1003.3,    0.0, -999.0
15-10-2022, 00:03:48,    181,    0.0,    7.0,   0.00,   0.00, 1003.2,    0.0, -999.0
15-10-2022, 00:03:58,    180,    0.5,    7.0,   0.00,   0.00, 1003.3,    0.1, -999.0
15-10-2022, 00:04:08,    181,    0.7,    7.0,   0.00,   0.00, 1003.3,    0.0, -999.0
15-10-2022, 00:04:18,    181,    0.4,    7.0,   0.00,   0.00, 1003.3,    0.0, -999.0
15-10-2022, 00:04:28,    181,    0.0,    6.9,   0.00,   0.00, 1003.2,    0.0, -999.0
15-10-2022, 00:04:38,    181,    0.0,    7.0,   0.00,   0.00, 1003.2,    0.0, -999.0
15-10-2022, 00:04:48,    181,    0.0,    7.0,   0.00,   0.00, 1003.2,    0.0, -999.0
15-10-2022, 00:04:58,    181,    0.0,    6.9,   0.00,   0.00, 1003.2,    0.0, -999.0
15-10-2022, 00:05:08,    181,    0.0,    6.9,   0.00,   0.00, 1003.2,    0.0, -999.0
15-10-2022, 00:05:18,    181,    0.0,    7.0,   0.00,   0.00, 1003.2,    0.0, -999.0
15-10-2022, 00:05:28,    181,    0.1,    7.0,   0.00,   0.00, 1003.3,    0.0, -999.0
15-10-2022, 00:05:37,    181,    0.1,    7.0,   0.00,   0.00, 1003.3,    0.0, -999.0
15-10-2022, 00:05:48,    181,    0.3,    7.0,   0.00,   0.00, 1003.3,    0.0, -999.0
15-10-2022, 00:05:58,    181,    0.5,    7.0,   0.00,   0.00, 1003.3,    0.0, -999.0
15-10-2022, 00:06:07,    180,    0.0,    6.8,   0.00,   0.00, 1003.2,    0.0, -999.0
15-10-2022, 00:06:17,    180,    0.6,    7.0,   0.00,   0.00, 1003.3,    0.0, -999.0
15-10-2022, 00:06:28,    180,    0.3,    7.0,   0.00,   0.00, 1003.3,    0.0, -999.0
15-10-2022, 00:06:37,    179,    0.1,    7.1,   0.00,   0.00, 1003.2,    0.0, -999.0
15-10-2022, 00:06:47,    180,    0.0,    7.0,   0.00,   0.00, 1003.2,    0.0, -999.0
15-10-2022, 00:06:58,    179,    0.0,    6.9,   0.00,   0.00, 1003.2,    0.1, -999.0
15-10-2022, 00:07:07,    180,    0.0,    7.0,   0.00,   0.00, 1003.2,    0.0, -999.0
15-10-2022, 00:07:17,    180,    0.2,    7.0,   0.00,   0.00, 1003.2,    0.1, -999.0
15-10-2022, 00:07:27,    179,    0.4,    7.1,   0.00,   0.00, 1003.3,    0.1, -999.0
15-10-2022, 00:07:37,    179,    0.0,    7.0,   0.00,   0.00, 1003.2,    0.1, -999.0
15-10-2022, 00:07:47,    180,    0.0,    7.0,   0.00,   0.00, 1003.2,    0.0, -999.0
15-10-2022, 00:07:57,    179,    0.2,    7.0,   0.00,   0.00, 1003.3,    0.0, -999.0
15-10-2022, 00:08:07,    179,    0.4,    7.1,   0.00,   0.00, 1003.3,    0.0, -999.0
15-10-2022, 00:08:17,    179,    0.2,    7.2,   0.00,   0.00, 1003.3,    0.0, -999.0
15-10-2022, 00:08:27,    179,    0.0,    7.1,   0.00,   0.00, 1003.2,    0.0, -999.0
15-10-2022, 00:08:37,    179,    0.4,    7.1,   0.00,   0.00, 1003.3,    0.1, -999.0
15-10-2022, 00:08:47,    179,    0.1,    6.9,   0.00,   0.00, 1003.3,    0.0, -999.0
15-10-2022, 00:08:57,    179,    0.3,    7.0,   0.00,   0.00, 1003.3,    0.0, -999.0
15-10-2022, 00:09:07,    179,    0.0,    6.9,   0.00,   0.00, 1003.2,    0.0, -999.0
15-10-2022, 00:09:16,    179,    0.0,    6.9,   0.00,   0.00, 1003.2,    0.0, -999.0
15-10-2022, 00:09:27,    179,    0.4,    7.0,   0.00,   0.00, 1003.3,    0.0, -999.0
15-10-2022, 00:09:37,    179,    0.7,    7.0,   0.00,   0.00, 1003.3,    0.0, -999.0
15-10-2022, 00:09:46,    179,    0.4,    7.0,   0.00,   0.00, 1003.3,    0.0, -999.0
15-10-2022, 00:09:56,    179,    0.1,    7.0,   0.00,   0.00, 1003.2,    0.0, -999.0
15-10-2022, 00:10:06,    178,    0.1,    6.9,   0.00,   0.00, 1003.2,    0.0, -999.0
15-10-2022, 00:10:16,    178,    0.1,    7.0,   0.00,   0.00, 1003.2,    0.0, -999.0
15-10-2022, 00:10:26,    179,    0.0,    6.9,   0.00,   0.00, 1003.1,    0.0, -999.0
15-10-2022, 00:10:36,    179,    0.5,    7.0,   0.00,   0.00, 1003.3,    0.2, -999.0
15-10-2022, 00:10:46,    179,    0.4,    7.0,   0.00,   0.00, 1003.2,    0.0, -999.0
15-10-2022, 00:10:56,    178,    0.0,    7.0,   0.00,   0.00, 1003.1,    0.1, -999.0
15-10-2022, 00:11:06,    179,    0.2,    7.0,   0.00,   0.00, 1003.1,    0.0, -999.0
15-10-2022, 00:11:16,    178,    0.6,    7.0,   0.00,   0.00, 1003.3,    0.0, -999.0
15-10-2022, 00:11:26,    178,    0.3,    7.0,   0.00,   0.00, 1003.2,    0.0, -999.0
15-10-2022, 00:11:36,    178,    0.5,    7.0,   0.00,   0.00, 1003.2,    0.0, -999.0
15-10-2022, 00:11:46,    178,    0.3,    7.0,   0.00,   0.00, 1003.2,    0.0, -999.0
15-10-2022, 00:11:56,    178,    0.0,    6.9,   0.00,   0.00, 1003.1,    0.0, -999.0
15-10-2022, 00:12:06,    178,    0.0,    6.9,   0.00,   0.00, 1003.1,    0.0, -999.0
15-10-2022, 00:12:16,    178,    0.0,    7.0,   0.00,   0.00, 1003.2,    0.0, -999.0
15-10-2022, 00:12:25,    178,    0.2,    7.0,   0.00,   0.00, 1003.2,    0.0, -999.0
15-10-2022, 00:12:36,    178,    0.0,    7.0,   0.00,   0.00, 1003.2,    0.1, -999.0
15-10-2022, 00:12:45,    178,    0.0,    6.9,   0.00,   0.00, 1003.1,    0.0, -999.0
15-10-2022, 00:12:55,    178,    0.6,    6.9,   0.00,   0.00, 1003.2,    0.0, -999.0
15-10-2022, 00:13:05,    178,    0.7,    7.0,   0.00,   0.00, 1003.2,    0.0, -999.0
15-10-2022, 00:13:15,    178,    1.3,    7.0,   0.00,   0.00, 1003.2,    0.4, -999.0
15-10-2022, 00:13:25,    178,    0.3,    7.0,   0.00,   0.00, 1003.2,    0.1, -999.0
15-10-2022, 00:13:35,    178,    0.0,    6.9,   0.00,   0.00, 1003.1,    0.0, -999.0
15-10-2022, 00:13:45,    177,    0.0,    6.9,   0.00,   0.00, 1003.1,    0.0, -999.0
15-10-2022, 00:13:55,    178,    0.0,    6.9,   0.00,   0.00, 1003.1,    0.0, -999.0
15-10-2022, 00:14:05,    178,    0.3,    6.9,   0.00,   0.00, 1003.1,    0.1, -999.0
15-10-2022, 00:14:15,    177,    0.3,    7.0,   0.00,   0.00, 1003.2,    0.0, -999.0
15-10-2022, 00:14:25,    178,    0.0,    6.9,   0.00,   0.00, 1003.0,    0.0, -999.0
15-10-2022, 00:14:35,    177,    0.0,    7.0,   0.00,   0.00, 1003.1,    0.0, -999.0
15-10-2022, 00:14:45,    177,    0.0,    6.9,   0.00,   0.00, 1003.0,    0.0, -999.0
15-10-2022, 00:14:55,    177,    0.0,    6.9,   0.00,   0.00, 1003.1,    0.0, -999.0
15-10-2022, 00:15:05,    177,    0.0,    7.0,   0.00,   0.00, 1003.0,    0.0, -999.0
15-10-2022, 00:15:15,    178,    0.0,    7.0,   0.00,   0.00, 1003.0,    0.0, -999.0
15-10-2022, 00:15:25,    178,    0.1,    7.0,   0.00,   0.00, 1003.1,    0.0, -999.0
15-10-2022, 00:15:34,    177,    0.1,    7.0,   0.00,   0.00, 1003.1,    0.0, -999.0
15-10-2022, 00:15:45,    177,    0.2,    7.0,   0.00,   0.00, 1003.1,    0.0, -999.0
15-10-2022, 00:15:54,    177,    0.3,    7.0,   0.00,   0.00, 1003.1,    0.0, -999.0
15-10-2022, 00:16:04,    178,    0.1,    6.9,   0.00,   0.00, 1003.1,    0.0, -999.0
15-10-2022, 00:16:14,    178,    0.6,    7.0,   0.00,   0.00, 1003.2,    0.0, -999.0
15-10-2022, 00:16:24,    177,    0.3,    6.9,   0.00,   0.00, 1003.1,    0.0, -999.0
15-10-2022, 00:16:34,    176,    0.7,    7.0,   0.00,   0.00, 1003.2,    0.0, -999.0
15-10-2022, 00:16:44,    177,    0.0,    6.9,   0.00,   0.00, 1003.0,    0.0, -999.0
15-10-2022, 00:16:54,    177,    0.0,    6.9,   0.00,   0.00, 1003.0,    0.0, -999.0
15-10-2022, 00:17:04,    177,    0.2,    6.9,   0.00,   0.00, 1003.1,    0.0, -999.0
15-10-2022, 00:17:14,    177,    0.6,    7.0,   0.00,   0.00, 1003.2,    0.0, -999.0
15-10-2022, 00:17:24,    176,    0.2,    7.0,   0.00,   0.00, 1003.1,    0.1, -999.0
15-10-2022, 00:17:34,    177,    0.1,    7.0,   0.00,   0.00, 1003.1,    0.2, -999.0
15-10-2022, 00:17:44,    177,    0.0,    6.9,   0.00,   0.00, 1003.0,    0.0, -999.0
15-10-2022, 00:17:54,    177,    0.0,    7.0,   0.00,   0.00, 1003.1,    0.1, -999.0
15-10-2022, 00:18:04,    177,    0.0,    7.0,   0.00,   0.00, 1003.0,    0.0, -999.0
15-10-2022, 00:18:14,    177,    0.0,    6.9,   0.00,   0.00, 1003.1,    0.0, -999.0
15-10-2022, 00:18:24,    177,    0.0,    7.0,   0.00,   0.00, 1003.0,    0.0, -999.0
15-10-2022, 00:18:34,    177,    0.2,    7.0,   0.00,   0.00, 1003.1,    0.0, -999.0
15-10-2022, 00:18:43,    176,    1.0,    7.0,   0.00,   0.00, 1003.2,    0.0, -999.0
15-10-2022, 00:18:54,    176,    0.9,    7.0,   0.00,   0.00, 1003.1,    0.0, -999.0
15-10-2022, 00:19:03,    176,    0.1,    6.9,   0.00,   0.00, 1003.1,    0.0, -999.0
15-10-2022, 00:19:13,    175,    0.1,    6.9,   0.00,   0.00, 1003.1,    0.0, -999.0
15-10-2022, 00:19:23,    162,    1.3,    7.0,   0.00,   0.00, 1003.2,    0.0, -999.0
15-10-2022, 00:19:33,    161,    0.9,    7.0,   0.00,   0.00, 1003.1,    0.1, -999.0
15-10-2022, 00:19:43,    161,    0.1,    6.9,   0.00,   0.00, 1003.0,    0.0, -999.0
15-10-2022, 00:19:53,    162,    0.0,    6.9,   0.00,   0.00, 1003.0,    0.0, -999.0
15-10-2022, 00:20:03,    161,    0.0,    6.9,   0.00,   0.00, 1003.0,    0.0, -999.0
15-10-2022, 00:20:13,    162,    0.0,    6.9,   0.00,   0.00, 1003.0,    0.0, -999.0
15-10-2022, 00:20:23,    161,    0.0,    6.9,   0.00,   0.00, 1003.0,    0.0, -999.0
15-10-2022, 00:20:33,    158,    0.4,    6.9,   0.00,   0.00, 1003.1,    0.1, -999.0
15-10-2022, 00:20:43,    157,    1.2,    7.0,   0.00,   0.00, 1003.1,    0.0, -999.0
15-10-2022, 00:20:53,    157,    0.6,    7.0,   0.00,   0.00, 1003.1,    0.1, -999.0
15-10-2022, 00:21:03,    157,    0.0,    6.9,   0.00,   0.00, 1003.0,    0.1, -999.0
15-10-2022, 00:21:13,    157,    0.4,    7.0,   0.00,   0.00, 1003.1,    0.1, -999.0
15-10-2022, 00:21:23,    157,    0.9,    7.0,   0.00,   0.00, 1003.1,    0.0, -999.0
15-10-2022, 00:21:33,    184,    0.5,    7.0,   0.00,   0.00, 1003.1,    0.0, -999.0
15-10-2022, 00:21:42,    184,    0.1,    6.9,   0.00,   0.00, 1003.0,    0.1, -999.0
15-10-2022, 00:21:52,    183,    0.0,    6.9,   0.00,   0.00, 1003.0,    0.0, -999.0
15-10-2022, 00:22:03,    183,    0.1,    6.9,   0.00,   0.00, 1003.1,    0.0, -999.0
15-10-2022, 00:22:12,    183,    0.0,    6.9,   0.00,   0.00, 1003.0,    0.0, -999.0
15-10-2022, 00:22:22,    183,    0.0,    7.0,   0.00,   0.00, 1003.0,    0.0, -999.0
15-10-2022, 00:22:32,    183,    0.0,    7.0,   0.00,   0.00, 1003.0,    0.0, -999.0
15-10-2022, 00:22:42,    184,    0.0,    7.0,   0.00,   0.00, 1003.0,    0.1, -999.0
15-10-2022, 00:22:52,    183,    0.0,    6.9,   0.00,   0.00, 1003.0,    0.0, -999.0
15-10-2022, 00:23:02,    180,    0.0,    7.0,   0.00,   0.00, 1003.0,    0.0, -999.0
15-10-2022, 00:23:12,    157,    0.4,    7.0,   0.00,   0.00, 1003.1,    0.0, -999.0
15-10-2022, 00:23:22,    190,    0.9,    6.9,   0.00,   0.00, 1003.1,    0.1, -999.0
15-10-2022, 00:23:32,    190,    0.3,    6.9,   0.00,   0.00, 1003.1,    0.0, -999.0
15-10-2022, 00:23:42,    190,    0.1,    6.9,   0.00,   0.00, 1003.1,    0.1, -999.0
15-10-2022, 00:23:52,    190,    0.0,    6.9,   0.00,   0.00, 1003.0,    0.0, -999.0
15-10-2022, 00:24:02,    167,    0.7,    6.9,   0.00,   0.00, 1003.1,    0.0, -999.0
15-10-2022, 00:24:12,    179,    0.6,    7.0,   0.00,   0.00, 1003.1,    0.0, -999.0
15-10-2022, 00:24:22,    173,    0.2,    6.9,   0.00,   0.00, 1003.0,    0.0, -999.0
15-10-2022, 00:24:32,    173,    0.0,    6.9,   0.00,   0.00, 1003.0,    0.0, -999.0
15-10-2022, 00:24:42,    173,    0.0,    7.0,   0.00,   0.00, 1003.0,    0.0, -999.0
15-10-2022, 00:24:52,    173,    0.0,    7.0,   0.00,   0.00, 1003.0,    0.0, -999.0
15-10-2022, 00:25:01,    173,    0.2,    7.0,   0.00,   0.00, 1003.1,    0.0, -999.0
15-10-2022, 00:25:12,    173,    0.0,    7.0,   0.00,   0.00, 1003.0,    0.0, -999.0
15-10-2022, 00:25:21,    173,    0.5,    7.0,   0.00,   0.00, 1003.1,    0.0, -999.0
15-10-2022, 00:25:31,    173,    0.2,    7.0,   0.00,   0.00, 1003.0,    0.0, -999.0
15-10-2022, 00:25:41,    173,    0.0,    6.9,   0.00,   0.00, 1003.0,    0.0, -999.0
15-10-2022, 00:25:51,    173,    0.5,    7.0,   0.00,   0.00, 1003.1,    0.0, -999.0
15-10-2022, 00:26:01,    173,    0.3,    7.1,   0.00,   0.00, 1003.0,    0.1, -999.0
15-10-2022, 00:26:11,    155,    0.5,    7.0,   0.00,   0.00, 1003.1,    0.0, -999.0
15-10-2022, 00:26:21,    155,    0.5,    6.9,   0.00,   0.00, 1003.0,    0.0, -999.0
15-10-2022, 00:26:31,    155,    0.1,    7.0,   0.00,   0.00, 1002.9,    0.0, -999.0
15-10-2022, 00:26:41,    155,    0.0,    6.9,   0.00,   0.00, 1002.9,    0.0, -999.0
15-10-2022, 00:26:51,    155,    0.0,    6.9,   0.00,   0.00, 1002.8,    0.0, -999.0
15-10-2022, 00:27:01,    168,    0.0,    6.9,   0.00,   0.00, 1002.9,    0.0, -999.0
15-10-2022, 00:27:11,    171,    0.0,    6.9,   0.00,   0.00, 1002.9,    0.0, -999.0
15-10-2022, 00:27:21,    171,    0.0,    6.9,   0.00,   0.00, 1002.9,    0.0, -999.0
15-10-2022, 00:27:31,    172,    0.2,    6.9,   0.00,   0.00, 1003.0,    0.0, -999.0
15-10-2022, 00:27:41,    171,    0.0,    6.9,   0.00,   0.01, 1002.9,    0.0, -999.0
15-10-2022, 00:27:51,    157,    0.8,    7.0,   0.00,   0.00, 1003.1,    0.0, -999.0
15-10-2022, 00:28:01,    151,    0.8,    7.0,   0.00,   0.00, 1003.0,    0.0, -999.0
15-10-2022, 00:28:10,    143,    0.8,    7.0,   0.00,   0.00, 1003.1,    0.2, -999.0
15-10-2022, 00:28:21,    144,    0.3,    7.0,   0.00,   0.00, 1003.0,    0.0, -999.0
15-10-2022, 00:28:30,    179,    1.4,    7.0,   0.00,   0.00, 1003.0,    0.0, -999.0
15-10-2022, 00:28:40,    159,    1.4,    7.0,   0.00,   0.00, 1003.0,    0.0, -999.0
15-10-2022, 00:28:50,    159,    1.6,    7.0,   0.00,   0.00, 1003.0,    0.0, -999.0
15-10-2022, 00:29:00,    159,    0.9,    7.0,   0.00,   0.00, 1003.0,    0.0, -999.0
15-10-2022, 00:29:10,    159,    0.2,    7.0,   0.00,   0.00, 1003.0,    0.0, -999.0
15-10-2022, 00:29:20,    159,    0.0,    6.9,   0.00,   0.00, 1002.8,    0.0, -999.0
15-10-2022, 00:29:30,    159,    0.0,    6.9,   0.00,   0.00, 1002.9,    0.0, -999.0
15-10-2022, 00:29:40,    159,    0.0,    6.9,   0.00,   0.00, 1002.8,    0.0, -999.0
15-10-2022, 00:29:50,    159,    0.0,    6.9,   0.00,   0.00, 1002.8,    0.0, -999.0
15-10-2022, 00:30:00,    159,    0.0,    6.8,   0.00,   0.00, 1002.8,    0.0, -999.0
15-10-2022, 00:30:10,    159,    0.0,    6.9,   0.00,   0.00, 1002.8,    0.0, -999.0
15-10-2022, 00:30:20,    159,    0.0,    6.9,   0.00,   0.00, 1002.8,    0.0, -999.0
15-10-2022, 00:30:30,    158,    0.0,    6.9,   0.00,   0.00, 1002.8,    0.0, -999.0
15-10-2022, 00:30:40,    159,    0.1,    7.0,   0.00,   0.00, 1002.8,    0.0, -999.0
15-10-2022, 00:30:50,    159,    0.4,    7.0,   0.00,   0.00, 1002.9,    0.0, -999.0
15-10-2022, 00:31:00,    159,    0.8,    7.0,   0.00,   0.00, 1002.9,    0.1, -999.0
15-10-2022, 00:31:10,    159,    0.1,    7.0,   0.00,   0.00, 1002.8,    0.1, -999.0
15-10-2022, 00:31:19,    159,    0.3,    7.0,   0.00,   0.00, 1002.9,    0.0, -999.0
15-10-2022, 00:31:30,    159,    0.4,    7.1,   0.00,   0.00, 1002.9,    0.0, -999.0
15-10-2022, 00:31:39,    159,    0.1,    7.0,   0.00,   0.00, 1002.9,    0.1, -999.0
15-10-2022, 00:31:49,    159,    0.1,    7.0,   0.00,   0.00, 1002.9,    0.0, -999.0
15-10-2022, 00:31:59,    159,    0.2,    7.1,   0.00,   0.00, 1002.9,    0.0, -999.0
15-10-2022, 00:32:09,    159,    0.8,    7.1,   0.00,   0.00, 1002.9,    0.0, -999.0
15-10-2022, 00:32:19,    158,    0.0,    7.0,   0.00,   0.00, 1002.8,    0.0, -999.0
15-10-2022, 00:32:29,    159,    0.6,    7.0,   0.00,   0.00, 1002.9,    0.0, -999.0
15-10-2022, 00:32:39,    159,    0.4,    6.9,   0.00,   0.00, 1002.9,    0.0, -999.0
15-10-2022, 00:32:49,    159,    0.1,    7.0,   0.00,   0.00, 1002.9,    0.0, -999.0
15-10-2022, 00:32:59,    159,    0.8,    7.1,   0.00,   0.00, 1002.9,    0.0, -999.0
15-10-2022, 00:33:09,    159,    0.1,    7.0,   0.00,   0.00, 1002.8,    0.0, -999.0
15-10-2022, 00:33:19,    159,    0.6,    7.1,   0.00,   0.00, 1002.8,    0.0, -999.0
15-10-2022, 00:33:29,    158,    0.4,    7.1,   0.00,   0.00, 1002.8,    0.0, -999.0
15-10-2022, 00:33:39,    159,    0.4,    7.0,   0.00,   0.00, 1002.8,    0.0, -999.0
15-10-2022, 00:33:49,    158,    1.1,    7.1,   0.00,   0.00, 1002.8,    0.0, -999.0
15-10-2022, 00:33:59,    158,    0.2,    7.1,   0.00,   0.00, 1002.8,    0.0, -999.0
15-10-2022, 00:34:09,    158,    0.3,    7.1,   0.00,   0.00, 1002.8,    0.0, -999.0
15-10-2022, 00:34:19,    158,    0.1,    7.1,   0.00,   0.00, 1002.7,    0.0, -999.0
15-10-2022, 00:34:28,    158,    0.0,    7.0,   0.00,   0.00, 1002.7,    0.1, -999.0
15-10-2022, 00:34:39,    159,    0.0,    7.0,   0.00,   0.00, 1002.7,    0.0, -999.0
15-10-2022, 00:34:48,    159,    1.2,    7.1,   0.00,   0.00, 1002.8,    0.0, -999.0
15-10-2022, 00:34:58,    158,    0.6,    7.1,   0.00,   0.00, 1002.8,    0.0, -999.0
15-10-2022, 00:35:08,    158,    0.3,    7.1,   0.00,   0.00, 1002.7,    0.0, -999.0
15-10-2022, 00:35:18,    159,    0.2,    7.0,   0.00,   0.00, 1002.7,    0.1, -999.0
15-10-2022, 00:35:28,    158,    0.9,    7.2,   0.00,   0.00, 1002.8,    0.0, -999.0
15-10-2022, 00:35:38,    159,    0.5,    7.1,   0.00,   0.00, 1002.7,    0.1, -999.0
15-10-2022, 00:35:48,    159,    0.4,    7.1,   0.00,   0.00, 1002.7,    0.1, -999.0
15-10-2022, 00:35:58,    158,    1.1,    7.1,   0.00,   0.00, 1002.7,    0.0, -999.0
15-10-2022, 00:36:08,    159,    0.2,    7.1,   0.00,   0.00, 1002.7,    0.0, -999.0
15-10-2022, 00:36:18,    158,    0.0,    7.1,   0.00,   0.00, 1002.6,    0.0, -999.0
15-10-2022, 00:36:28,    158,    0.0,    7.1,   0.00,   0.00, 1002.7,    0.0, -999.0
15-10-2022, 00:36:38,    158,    0.0,    7.1,   0.00,   0.00, 1002.6,    0.0, -999.0
15-10-2022, 00:36:48,    158,    0.0,    7.1,   0.00,   0.00, 1002.6,    0.0, -999.0
15-10-2022, 00:36:58,    158,    0.0,    7.1,   0.00,   0.00, 1002.7,    0.0, -999.0
15-10-2022, 00:37:08,    158,    0.0,    7.1,   0.00,   0.00, 1002.6,    0.0, -999.0
15-10-2022, 00:37:18,    158,    0.1,    7.1,   0.00,   0.00, 1002.7,    0.0, -999.0
15-10-2022, 00:37:28,    159,    0.1,    7.1,   0.00,   0.00, 1002.7,    0.1, -999.0
15-10-2022, 00:37:37,    158,    0.2,    7.2,   0.00,   0.00, 1002.7,    0.1, -999.0
15-10-2022, 00:37:48,    159,    0.3,    7.2,   0.00,   0.00, 1002.7,    0.0, -999.0
15-10-2022, 00:37:57,    158,    0.1,    7.2,   0.00,   0.00, 1002.7,    0.0, -999.0
15-10-2022, 00:38:07,    159,    0.2,    7.2,   0.00,   0.00, 1002.7,    0.0, -999.0
15-10-2022, 00:38:18,    158,    0.3,    7.2,   0.00,   0.00, 1002.7,    0.1, -999.0
15-10-2022, 00:38:27,    158,    0.5,    7.2,   0.00,   0.00, 1002.7,    0.0, -999.0
15-10-2022, 00:38:37,    158,    0.2,    7.2,   0.00,   0.00, 1002.7,    0.1, -999.0
15-10-2022, 00:38:47,    157,    0.4,    7.2,   0.00,   0.00, 1002.7,    0.0, -999.0
15-10-2022, 00:38:57,    159,    0.3,    7.0,   0.00,   0.00, 1002.7,    0.0, -999.0
15-10-2022, 00:39:07,    159,    0.6,    7.2,   0.00,   0.00, 1002.7,    0.0, -999.0
15-10-2022, 00:39:17,    159,    0.7,    7.2,   0.00,   0.00, 1002.8,    0.0, -999.0
15-10-2022, 00:39:27,    160,    1.2,    7.2,   0.00,   0.00, 1002.8,    0.0, -999.0
15-10-2022, 00:39:37,    198,    1.6,    7.2,   0.00,   0.00, 1002.8,    0.0, -999.0
15-10-2022, 00:39:47,    165,    0.6,    7.1,   0.00,   0.00, 1002.7,    0.0, -999.0
15-10-2022, 00:39:57,    165,    0.0,    7.1,   0.00,   0.00, 1002.6,    0.0, -999.0
15-10-2022, 00:40:07,    165,    1.0,    7.2,   0.00,   0.00, 1002.8,    0.0, -999.0
15-10-2022, 00:40:17,    111,    0.4,    7.1,   0.00,   0.00, 1002.7,    0.0, -999.0
15-10-2022, 00:40:27,    137,    0.5,    7.2,   0.00,   0.00, 1002.7,    0.0, -999.0
15-10-2022, 00:40:36,    137,    0.2,    7.2,   0.00,   0.00, 1002.7,    0.1, -999.0
15-10-2022, 00:40:46,    137,    0.0,    7.1,   0.00,   0.00, 1002.6,    0.0, -999.0
15-10-2022, 00:40:57,    137,    0.6,    7.2,   0.00,   0.00, 1002.7,    0.0, -999.0
15-10-2022, 00:41:06,    137,    0.5,    7.2,   0.00,   0.00, 1002.8,    0.1, -999.0
15-10-2022, 00:41:16,    136,    0.7,    7.3,   0.00,   0.00, 1002.8,    0.0, -999.0
15-10-2022, 00:41:27,    136,    0.1,    7.2,   0.00,   0.00, 1002.7,    0.0, -999.0
15-10-2022, 00:41:36,    136,    0.0,    7.1,   0.00,   0.00, 1002.6,    0.0, -999.0
15-10-2022, 00:41:46,    135,    0.0,    7.2,   0.00,   0.00, 1002.6,    0.0, -999.0
15-10-2022, 00:41:56,    135,    0.0,    7.1,   0.00,   0.00, 1002.6,    0.0, -999.0
15-10-2022, 00:42:06,    200,    0.0,    7.1,   0.00,   0.00, 1002.6,    0.0, -999.0
15-10-2022, 00:42:16,    197,    0.0,    7.1,   0.00,   0.00, 1002.6,    0.0, -999.0
15-10-2022, 00:42:26,    149,    0.0,    7.1,   0.00,   0.00, 1002.6,    0.0, -999.0
15-10-2022, 00:42:36,    172,    0.0,    7.1,   0.00,   0.00, 1002.6,    0.0, -999.0
15-10-2022, 00:42:46,    172,    0.0,    7.1,   0.00,   0.00, 1002.6,    0.0, -999.0
15-10-2022, 00:42:56,    168,    0.7,    7.2,   0.00,   0.00, 1002.7,    0.0, -999.0
15-10-2022, 00:43:06,    168,    1.1,    7.3,   0.00,   0.00, 1002.7,    0.1, -999.0
15-10-2022, 00:43:16,    168,    1.0,    7.3,   0.00,   0.00, 1002.7,    0.0, -999.0
15-10-2022, 00:43:26,    168,    0.1,    7.2,   0.00,   0.00, 1002.7,    0.0, -999.0
15-10-2022, 00:43:36,    168,    0.2,    7.3,   0.00,   0.00, 1002.7,    0.0, -999.0
15-10-2022, 00:43:45,    168,    0.1,    7.3,   0.00,   0.00, 1002.7,    0.0, -999.0
15-10-2022, 00:43:55,    168,    0.1,    7.3,   0.00,   0.00, 1002.7,    0.0, -999.0
15-10-2022, 00:44:06,    168,    0.3,    7.3,   0.00,   0.00, 1002.7,    0.0, -999.0
15-10-2022, 00:44:15,    168,    0.0,    7.2,   0.00,   0.00, 1002.6,    0.0, -999.0
15-10-2022, 00:44:25,    168,    0.6,    7.3,   0.00,   0.00, 1002.7,    0.1, -999.0
15-10-2022, 00:44:35,    168,    0.9,    7.3,   0.00,   0.00, 1002.7,    0.0, -999.0
15-10-2022, 00:44:45,    168,    0.2,    7.2,   0.00,   0.00, 1002.6,    0.0, -999.0
15-10-2022, 00:44:57,    168,    0.2,    7.2,   0.00,   0.00, 1002.6,    0.0, -999.0
15-10-2022, 00:45:05,    168,    0.0,    7.2,   0.00,   0.00, 1002.6,    0.1, -999.0
15-10-2022, 00:45:15,    168,    0.0,    7.2,   0.00,   0.00, 1002.6,    0.1, -999.0
15-10-2022, 00:45:25,    168,    0.0,    7.2,   0.00,   0.00, 1002.6,    0.1, -999.0
15-10-2022, 00:45:35,    168,    0.0,    7.2,   0.00,   0.00, 1002.6,    0.0, -999.0
15-10-2022, 00:45:45,    168,    0.4,    7.3,   0.00,   0.00, 1002.7,    0.1, -999.0
15-10-2022, 00:45:55,    168,    0.6,    7.3,   0.00,   0.00, 1002.7,    0.1, -999.0
15-10-2022, 00:46:05,    168,    0.2,    7.3,   0.00,   0.00, 1002.7,    0.0, -999.0
15-10-2022, 00:46:15,    168,    0.3,    7.3,   0.00,   0.00, 1002.7,    0.1, -999.0
15-10-2022, 00:46:25,    168,    0.4,    7.2,   0.00,   0.00, 1002.6,    0.0, -999.0
15-10-2022, 00:46:35,    167,    0.5,    7.3,   0.00,   0.00, 1002.7,    0.0, -999.0